Regional Weather Roundup
Issued by NWS

Home | Current Version | Previous Version | Graphics & Text | Print | Product List | Glossary On
Versions: 1 2 3 4 5 6 7 8 9 10 11 12 13 14 15 16 17 18 19 20 21 22 23 24 25 26 27 28 29 30 31 32 33 34 35 36 37 38 39 40 41 42 43 44 45 46 47 48 49 50
000
ASUS45 KTFX 252110
RWRMT
MONTANA REGIONAL WEATHER ROUNDUP
NATIONAL WEATHER SERVICE GREAT FALLS MT
300 PM MDT MON MAY 25 2015

NOTE: "FAIR" INDICATES FEW OR NO CLOUDS BELOW 12000 FEET WITH NO
SIGNIFICANT WEATHER AND/OR OBSTRUCTIONS TO VISIBILITY.

MTZ001>007-043-252200-
WEST OF THE DIVIDE

CITY           SKY/WX    TMP DP  RH WIND       PRES   REMARKS
KALISPELL      LGT RAIN  62  49  62 E5        29.89F
MISSOULA       LGT RAIN  61  45  55 W20G28    29.90R
BUTTE          MOSUNNY   66  29  24 VRB3      29.90F
MULLAN PASS    CLOUDY    45  44  97 CALM      29.99R
DEER LODGE       N/A     66  37  34 E5        29.90F
EUREKA           N/A     66  43  42 S9        29.90S
HAMILTON         N/A     66  39  37 W16       29.85R
LIBBY            N/A     63  48  59 CALM      29.91S
RONAN            N/A     65  45  48 N13       29.96R
$$

MTZ008-052>055-252200-
SOUTHWEST MONTANA

CITY           SKY/WX    TMP DP  RH WIND       PRES   REMARKS
BOZEMAN        MOSUNNY   67  44  43 CALM      29.90F
DILLON         MOSUNNY   64  35  34 W3        29.90S
W YELLOWSTONE  PTSUNNY   57  32  38 N6        29.96F
THREE FORKS      N/A     67  67 100 S3        29.90F
TWIN BRIDGES     N/A     69  33  26 S3        29.89F
$$

MTZ009-010-012-014-046-048-049-054-252200-
EAST SLOPES AND CENTRAL MONTANA

CITY           SKY/WX    TMP DP  RH WIND       PRES   REMARKS
CUT BANK       MOSUNNY   70  40  33 S13       29.86F
GREAT FALLS    SUNNY     70  41  34 VRB3      29.86F
HELENA         MOSUNNY   70  40  33 VRB3      29.86F
CONRAD           N/A     71  45  39 NE12      29.90F
$$

MTZ011-013-016-021-045-047-050-051-252200-
NORTH CENTRAL MONTANA

CITY           SKY/WX    TMP DP  RH WIND       PRES   REMARKS
HAVRE          MOSUNNY   76  33  21 SE9       29.84S
LEWISTOWN      PTSUNNY   68  44  42 VRB6      29.90S
N BAR RANCH    MOCLDY    64  41  42 E8        29.94F
CHINOOK          N/A     75  36  23 E9G17     29.84F
FORT BENTON      N/A     73  39  29 E6        29.86F
$$

MTZ017>020-022>027-061-062-252200-
NORTHEAST MONTANA

CITY           SKY/WX    TMP DP  RH WIND       PRES   REMARKS
GLASGOW        SUNNY     77  37  23 E13       29.83F
JORDAN           N/A     74  41  30 S7        29.85S
SIDNEY         MOSUNNY   72  46  40 CALM      29.88R
WOLF POINT     PTSUNNY   72  48  42 SE10G21   29.86R
MALTA            N/A     78  41  26 SE6       29.82F
POPLAR           N/A     73  48  40 SE14      29.87S
SCOBEY           N/A     76  38  25 SE6       29.86S
$$

MTZ028>42-056>058-252200-
SOUTHCENTRAL AND SOUTHEAST MONTANA

CITY           SKY/WX    TMP DP  RH WIND       PRES   REMARKS
BAKER          CLOUDY    61  52  72 E14       29.92R
BILLINGS       MOSUNNY   67  43  41 CALM      29.90F
LIVINGSTON     MOSUNNY   69  42  37 E7        29.90S
MILES CITY     CLOUDY    66  51  58 E12       29.89R
BIG TIMBER       N/A     64  41  42 E5        29.91F
EKALAKA          N/A     60  50  69 E8        29.90S
FORSYTH          N/A     70  46  43 W9        29.87F
LAUREL           N/A     66  41  40 E2        29.91F
ROUNDUP          N/A     67  43  41 CALM      29.82F
$$

REGIONAL REPORTS...DAKOTAS

CITY           SKY/WX    TMP DP  RH WIND       PRES   REMARKS
WILLISTON      PTSUNNY   75  42  30 W3        29.84F
MINOT          CLOUDY    75  42  30 NW7       29.81S
DICKINSON      CLOUDY    66  49  54 SE9       29.88S
BEACH          FAIR      63  54  72 SE14      29.92S
CROSBY         FAIR      77  36  22 SE9       29.84S
WATFORD CITY   FAIR      72  46  40 SW6       29.84F
BISMARCK       PTSUNNY   68  55  63 W10       29.85S
GRAND FORKS    CLOUDY    74  50  42 SE8       29.75S
FARGO          CLOUDY    66  53  63 N10       29.78R
BUFFALO SD       N/A     58  54  86 NE10      29.84R
RAPID CITY     LGT RAIN  59  53  80 N12       29.86R
$$

REGIONAL REPORTS...WYOMING/IDAHO/WASHINGTON

CITY           SKY/WX    TMP DP  RH WIND       PRES   REMARKS
GILLETTE       CLOUDY    57  48  72 N10       29.92S
SHERIDAN       CLOUDY    60  49  66 NW8       29.93S
BUFFALO WY     CLOUDY    57  47  69 NE7       29.95F
CODY           CLOUDY    57  39  51 N16G23    29.95R
YELLOWSTONE LA   N/A     42  37  82 SW9       30.06R
IDAHO FALLS    PTSUNNY   65  44  46 SW9       29.92F
SALMON         PTSUNNY   64  43  45 SW10      29.86F
BOISE          MOSUNNY   77  40  26 NW6       29.83F
SPOKANE        PTSUNNY   61  50  67 E12       29.89F
$$

REGIONAL REPORTS...ALBERTA

CITY           SKY/WX    TMP DP  RH WIND       PRES   REMARKS
EDMONTON       PTSUNNY   79  36  21 CALM      29.82F
CALGARY        CLOUDY    73  37  27 SE17      29.86F
LETHBRIDGE     PTSUNNY   73  39  29 S15G25    29.83F
MEDICINE HAT   PTSUNNY   79  34  19 E9        29.83F
$$

REGIONAL REPORTS...SASKATCHEWAN

CITY           SKY/WX    TMP DP  RH WIND       PRES   REMARKS
SWIFT CURRENT  CLOUDY    77  34  20 SE8G22    29.86R
REGINA         PTSUNNY   77  41  27 SW12      29.84S
SASKATOON      PTSUNNY   82  32  16 NW6       29.82R
$$


USA.gov is the U.S. government's official web portal to all federal, state and local government web resources and services.